Terug naar catalogus

COSMOS 1818 COOLANT

ActiefLEO
NORAD 36935·DEBRIS·🇷🇺 Russia

Gelanceerd Feb 1, 1987 vanaf Baikonur Cosmodrome

Loading…

Volgende Passages (komende 24 uur)

TLE

VerouderdSource: Space-Track

Epoch: Sep 6, 2026, 09:52 UTC

1 36935U 87011P   26249.41122996  .00000448  00000-0  16948-3 0  9997
2 36935  65.0063 293.0424 0020447 280.8593  79.0195 14.41273743353394

Volg COSMOS 1818 COOLANT in realtime met AllMySat

Download on the App Store